Cache Creek Below Clear Lake [ USA-CAL ]

Edit Gauge

Current Conditions

Reading of "n/a" = frozen gauge or gauge error.
Reading Trend Type Updated
too low 0.0 r.c./hr Status 00h36m
5 cfs 0 cfs/hr Flow 00h36m
n/a n/a Feet Stage 252d16h36m

Station Description

AW Gauge ID: 42464
Source: dream
Station: 394
Enabled yes
AW thanks Chris Shackleton and Dreamflows for this data. Dreamflows data should only be analyzed in the context of the Dreamflows site. Data is often calculated and/or approximated. Please see Chris's site for a complete description of how this data should and can be interpreted. Source Gauge's Page

Information

Feet Stage

Gauge History

Times listed in GMT 24h, ET and PT hours provided for convenience Graphs in GMT. Readings of "n/a" constitute a frozen gauge or gauge error.
Reading Updated (GMT) Eastern Pacific Comment

Flow

Gauge History

Times listed in GMT 24h, ET and PT hours provided for convenience Graphs in GMT. Readings of "n/a" constitute a frozen gauge or gauge error.
Reading Updated (GMT) Eastern Pacific Comment
5.00 01/18/2019 00:29:52 Jan 17 07:29 pm Jan 17 4:29 pm
5.00 01/17/2019 23:28:00 Jan 17 06:28 pm Jan 17 3:28 pm
5.00 01/17/2019 22:28:16 Jan 17 05:28 pm Jan 17 2:28 pm
5.00 01/17/2019 21:28:32 Jan 17 04:28 pm Jan 17 1:28 pm
5.00 01/17/2019 20:28:48 Jan 17 03:28 pm Jan 17 12:28 pm
6.00 01/17/2019 19:29:04 Jan 17 02:29 pm Jan 17 11:29 am
6.00 01/17/2019 18:29:20 Jan 17 01:29 pm Jan 17 10:29 am
6.00 01/17/2019 17:29:36 Jan 17 12:29 pm Jan 17 9:29 am
6.00 01/17/2019 16:29:52 Jan 17 11:29 am Jan 17 8:29 am
6.00 01/17/2019 15:28:00 Jan 17 10:28 am Jan 17 7:28 am
6.00 01/17/2019 14:28:16 Jan 17 09:28 am Jan 17 6:28 am
6.00 01/17/2019 13:28:32 Jan 17 08:28 am Jan 17 5:28 am
7.00 01/17/2019 12:28:48 Jan 17 07:28 am Jan 17 4:28 am
8.00 01/17/2019 11:29:04 Jan 17 06:29 am Jan 17 3:29 am
9.00 01/17/2019 10:29:20 Jan 17 05:29 am Jan 17 2:29 am
9.00 01/17/2019 09:29:36 Jan 17 04:29 am Jan 17 1:29 am
1180.00 01/17/2019 06:28:16 Jan 17 01:28 am Jan 16 10:28 pm
1250.00 01/17/2019 05:28:32 Jan 17 12:28 am Jan 16 9:28 pm
6.00 01/17/2019 04:28:48 Jan 16 11:28 pm Jan 16 8:28 pm
5.00 01/17/2019 03:29:04 Jan 16 10:29 pm Jan 16 7:29 pm
5.00 01/17/2019 02:29:20 Jan 16 09:29 pm Jan 16 6:29 pm
5.00 01/17/2019 01:29:36 Jan 16 08:29 pm Jan 16 5:29 pm
5.00 01/17/2019 00:29:52 Jan 16 07:29 pm Jan 16 4:29 pm
4.00 01/16/2019 23:28:00 Jan 16 06:28 pm Jan 16 3:28 pm
4.00 01/16/2019 22:28:16 Jan 16 05:28 pm Jan 16 2:28 pm
3.00 01/16/2019 21:28:32 Jan 16 04:28 pm Jan 16 1:28 pm
3.00 01/16/2019 20:28:48 Jan 16 03:28 pm Jan 16 12:28 pm
3.00 01/16/2019 19:58:56 Jan 16 02:58 pm Jan 16 11:58 am
3.00 01/16/2019 19:29:04 Jan 16 02:29 pm Jan 16 11:29 am
3.00 01/16/2019 18:29:20 Jan 16 01:29 pm Jan 16 10:29 am
3.00 01/16/2019 17:29:36 Jan 16 12:29 pm Jan 16 9:29 am
3.00 01/16/2019 16:29:52 Jan 16 11:29 am Jan 16 8:29 am
3.00 01/16/2019 15:28:00 Jan 16 10:28 am Jan 16 7:28 am
3.00 01/16/2019 14:28:16 Jan 16 09:28 am Jan 16 6:28 am
3.00 01/16/2019 13:28:32 Jan 16 08:28 am Jan 16 5:28 am
3.00 01/16/2019 12:28:48 Jan 16 07:28 am Jan 16 4:28 am
3.00 01/16/2019 11:29:04 Jan 16 06:29 am Jan 16 3:29 am
3.00 01/16/2019 10:29:20 Jan 16 05:29 am Jan 16 2:29 am
3.00 01/16/2019 09:29:36 Jan 16 04:29 am Jan 16 1:29 am
2.00 01/16/2019 06:28:16 Jan 16 01:28 am Jan 15 10:28 pm
2.00 01/16/2019 05:28:32 Jan 16 12:28 am Jan 15 9:28 pm
2.00 01/16/2019 04:28:48 Jan 15 11:28 pm Jan 15 8:28 pm
2.00 01/16/2019 03:29:04 Jan 15 10:29 pm Jan 15 7:29 pm
2.00 01/16/2019 02:29:20 Jan 15 09:29 pm Jan 15 6:29 pm
2.00 01/16/2019 01:29:36 Jan 15 08:29 pm Jan 15 5:29 pm
2.00 01/16/2019 00:29:52 Jan 15 07:29 pm Jan 15 4:29 pm
2.00 01/15/2019 23:28:00 Jan 15 06:28 pm Jan 15 3:28 pm
2.00 01/15/2019 22:28:16 Jan 15 05:28 pm Jan 15 2:28 pm
2.00 01/15/2019 21:28:32 Jan 15 04:28 pm Jan 15 1:28 pm
2.00 01/15/2019 20:28:48 Jan 15 03:28 pm Jan 15 12:28 pm
2.00 01/15/2019 19:29:04 Jan 15 02:29 pm Jan 15 11:29 am
2.00 01/15/2019 18:29:20 Jan 15 01:29 pm Jan 15 10:29 am
2.00 01/15/2019 17:29:36 Jan 15 12:29 pm Jan 15 9:29 am
2.00 01/15/2019 16:29:52 Jan 15 11:29 am Jan 15 8:29 am
2.00 01/15/2019 15:28:00 Jan 15 10:28 am Jan 15 7:28 am
2.00 01/15/2019 14:28:16 Jan 15 09:28 am Jan 15 6:28 am
2.00 01/15/2019 13:28:32 Jan 15 08:28 am Jan 15 5:28 am
2.00 01/15/2019 12:28:48 Jan 15 07:28 am Jan 15 4:28 am
2.00 01/15/2019 11:29:04 Jan 15 06:29 am Jan 15 3:29 am
2.00 01/15/2019 10:29:20 Jan 15 05:29 am Jan 15 2:29 am
2.00 01/15/2019 09:29:36 Jan 15 04:29 am Jan 15 1:29 am
2.00 01/15/2019 06:28:16 Jan 15 01:28 am Jan 14 10:28 pm
2.00 01/15/2019 05:28:32 Jan 15 12:28 am Jan 14 9:28 pm
2.00 01/15/2019 04:28:48 Jan 14 11:28 pm Jan 14 8:28 pm
2.00 01/15/2019 03:29:04 Jan 14 10:29 pm Jan 14 7:29 pm
2.00 01/15/2019 02:29:20 Jan 14 09:29 pm Jan 14 6:29 pm
2.00 01/15/2019 01:29:36 Jan 14 08:29 pm Jan 14 5:29 pm
2.00 01/15/2019 00:29:52 Jan 14 07:29 pm Jan 14 4:29 pm
2.00 01/14/2019 23:28:00 Jan 14 06:28 pm Jan 14 3:28 pm
2.00 01/14/2019 22:28:16 Jan 14 05:28 pm Jan 14 2:28 pm
2.00 01/14/2019 21:28:32 Jan 14 04:28 pm Jan 14 1:28 pm
2.00 01/14/2019 20:28:48 Jan 14 03:28 pm Jan 14 12:28 pm
2.00 01/14/2019 19:58:56 Jan 14 02:58 pm Jan 14 11:58 am
2.00 01/14/2019 19:29:04 Jan 14 02:29 pm Jan 14 11:29 am
2.00 01/14/2019 18:29:20 Jan 14 01:29 pm Jan 14 10:29 am
2.00 01/14/2019 17:29:36 Jan 14 12:29 pm Jan 14 9:29 am
2.00 01/14/2019 16:29:52 Jan 14 11:29 am Jan 14 8:29 am
2.00 01/14/2019 15:28:00 Jan 14 10:28 am Jan 14 7:28 am
2.00 01/14/2019 14:28:16 Jan 14 09:28 am Jan 14 6:28 am
2.00 01/14/2019 13:28:32 Jan 14 08:28 am Jan 14 5:28 am
2.00 01/14/2019 12:28:48 Jan 14 07:28 am Jan 14 4:28 am
2.00 01/14/2019 11:29:04 Jan 14 06:29 am Jan 14 3:29 am
2.00 01/14/2019 10:29:20 Jan 14 05:29 am Jan 14 2:29 am
2.00 01/14/2019 09:29:36 Jan 14 04:29 am Jan 14 1:29 am
2.00 01/14/2019 06:28:16 Jan 14 01:28 am Jan 13 10:28 pm
2.00 01/14/2019 05:28:32 Jan 14 12:28 am Jan 13 9:28 pm
2.00 01/14/2019 04:28:48 Jan 13 11:28 pm Jan 13 8:28 pm
2.00 01/14/2019 03:29:04 Jan 13 10:29 pm Jan 13 7:29 pm
2.00 01/14/2019 02:29:20 Jan 13 09:29 pm Jan 13 6:29 pm
2.00 01/14/2019 01:29:36 Jan 13 08:29 pm Jan 13 5:29 pm
2.00 01/14/2019 00:29:52 Jan 13 07:29 pm Jan 13 4:29 pm
2.00 01/13/2019 23:28:00 Jan 13 06:28 pm Jan 13 3:28 pm
2.00 01/13/2019 22:28:16 Jan 13 05:28 pm Jan 13 2:28 pm
2.00 01/13/2019 21:28:32 Jan 13 04:28 pm Jan 13 1:28 pm
2.00 01/13/2019 20:28:48 Jan 13 03:28 pm Jan 13 12:28 pm
2.00 01/13/2019 19:58:56 Jan 13 02:58 pm Jan 13 11:58 am
2.00 01/13/2019 19:29:04 Jan 13 02:29 pm Jan 13 11:29 am
2.00 01/13/2019 18:29:20 Jan 13 01:29 pm Jan 13 10:29 am
2.00 01/13/2019 17:29:36 Jan 13 12:29 pm Jan 13 9:29 am
2.00 01/13/2019 16:29:52 Jan 13 11:29 am Jan 13 8:29 am
2.00 01/13/2019 15:28:00 Jan 13 10:28 am Jan 13 7:28 am
2.00 01/13/2019 14:28:16 Jan 13 09:28 am Jan 13 6:28 am
2.00 01/13/2019 13:28:32 Jan 13 08:28 am Jan 13 5:28 am
2.00 01/13/2019 12:28:48 Jan 13 07:28 am Jan 13 4:28 am
2.00 01/13/2019 11:29:04 Jan 13 06:29 am Jan 13 3:29 am
2.00 01/13/2019 10:29:20 Jan 13 05:29 am Jan 13 2:29 am
2.00 01/13/2019 09:29:36 Jan 13 04:29 am Jan 13 1:29 am
2.00 01/13/2019 06:28:16 Jan 13 01:28 am Jan 12 10:28 pm
2.00 01/13/2019 05:28:32 Jan 13 12:28 am Jan 12 9:28 pm
2.00 01/13/2019 04:28:48 Jan 12 11:28 pm Jan 12 8:28 pm
2.00 01/13/2019 03:29:04 Jan 12 10:29 pm Jan 12 7:29 pm
2.00 01/13/2019 02:29:20 Jan 12 09:29 pm Jan 12 6:29 pm
2.00 01/13/2019 01:29:36 Jan 12 08:29 pm Jan 12 5:29 pm
2.00 01/13/2019 00:29:52 Jan 12 07:29 pm Jan 12 4:29 pm
2.00 01/12/2019 23:28:00 Jan 12 06:28 pm Jan 12 3:28 pm
2.00 01/12/2019 22:28:16 Jan 12 05:28 pm Jan 12 2:28 pm
2.00 01/12/2019 21:28:32 Jan 12 04:28 pm Jan 12 1:28 pm
2.00 01/12/2019 20:28:48 Jan 12 03:28 pm Jan 12 12:28 pm
2.00 01/12/2019 19:58:56 Jan 12 02:58 pm Jan 12 11:58 am
2.00 01/12/2019 19:29:04 Jan 12 02:29 pm Jan 12 11:29 am
2.00 01/12/2019 18:29:20 Jan 12 01:29 pm Jan 12 10:29 am
2.00 01/12/2019 17:29:36 Jan 12 12:29 pm Jan 12 9:29 am
2.00 01/12/2019 16:29:52 Jan 12 11:29 am Jan 12 8:29 am
2.00 01/12/2019 15:28:00 Jan 12 10:28 am Jan 12 7:28 am
2.00 01/12/2019 14:28:16 Jan 12 09:28 am Jan 12 6:28 am
2.00 01/12/2019 13:28:32 Jan 12 08:28 am Jan 12 5:28 am
2.00 01/12/2019 12:28:48 Jan 12 07:28 am Jan 12 4:28 am
2.00 01/12/2019 11:29:04 Jan 12 06:29 am Jan 12 3:29 am
2.00 01/12/2019 10:29:20 Jan 12 05:29 am Jan 12 2:29 am
2.00 01/12/2019 09:29:36 Jan 12 04:29 am Jan 12 1:29 am
2.00 01/12/2019 06:28:16 Jan 12 01:28 am Jan 11 10:28 pm
2.00 01/12/2019 05:28:32 Jan 12 12:28 am Jan 11 9:28 pm
2.00 01/12/2019 04:28:48 Jan 11 11:28 pm Jan 11 8:28 pm
2.00 01/12/2019 03:29:04 Jan 11 10:29 pm Jan 11 7:29 pm
2.00 01/12/2019 02:29:20 Jan 11 09:29 pm Jan 11 6:29 pm
2.00 01/12/2019 01:29:36 Jan 11 08:29 pm Jan 11 5:29 pm
2.00 01/12/2019 00:29:52 Jan 11 07:29 pm Jan 11 4:29 pm
2.00 01/11/2019 23:28:00 Jan 11 06:28 pm Jan 11 3:28 pm
2.00 01/11/2019 22:28:16 Jan 11 05:28 pm Jan 11 2:28 pm
2.00 01/11/2019 21:28:32 Jan 11 04:28 pm Jan 11 1:28 pm
2.00 01/11/2019 20:28:48 Jan 11 03:28 pm Jan 11 12:28 pm
2.00 01/11/2019 19:58:56 Jan 11 02:58 pm Jan 11 11:58 am
2.00 01/11/2019 19:29:04 Jan 11 02:29 pm Jan 11 11:29 am
2.00 01/11/2019 18:29:20 Jan 11 01:29 pm Jan 11 10:29 am
2.00 01/11/2019 17:29:36 Jan 11 12:29 pm Jan 11 9:29 am
2.00 01/11/2019 16:29:52 Jan 11 11:29 am Jan 11 8:29 am
2.00 01/11/2019 15:28:00 Jan 11 10:28 am Jan 11 7:28 am
2.00 01/11/2019 14:28:16 Jan 11 09:28 am Jan 11 6:28 am
2.00 01/11/2019 13:28:32 Jan 11 08:28 am Jan 11 5:28 am
2.00 01/11/2019 12:28:48 Jan 11 07:28 am Jan 11 4:28 am
2.00 01/11/2019 11:29:04 Jan 11 06:29 am Jan 11 3:29 am
2.00 01/11/2019 10:29:20 Jan 11 05:29 am Jan 11 2:29 am
2.00 01/11/2019 09:29:36 Jan 11 04:29 am Jan 11 1:29 am
2.00 01/11/2019 06:28:16 Jan 11 01:28 am Jan 10 10:28 pm
2.00 01/11/2019 05:28:32 Jan 11 12:28 am Jan 10 9:28 pm
2.00 01/11/2019 04:28:48 Jan 10 11:28 pm Jan 10 8:28 pm
2.00 01/11/2019 03:29:04 Jan 10 10:29 pm Jan 10 7:29 pm
2.00 01/11/2019 02:29:20 Jan 10 09:29 pm Jan 10 6:29 pm
2.00 01/11/2019 01:29:36 Jan 10 08:29 pm Jan 10 5:29 pm
2.00 01/11/2019 00:29:52 Jan 10 07:29 pm Jan 10 4:29 pm
2.00 01/10/2019 23:28:00 Jan 10 06:28 pm Jan 10 3:28 pm
2.00 01/10/2019 22:28:16 Jan 10 05:28 pm Jan 10 2:28 pm
2.00 01/10/2019 21:28:32 Jan 10 04:28 pm Jan 10 1:28 pm
2.00 01/10/2019 20:28:48 Jan 10 03:28 pm Jan 10 12:28 pm
2.00 01/10/2019 19:58:56 Jan 10 02:58 pm Jan 10 11:58 am
2.00 01/10/2019 19:29:04 Jan 10 02:29 pm Jan 10 11:29 am
2.00 01/10/2019 18:29:20 Jan 10 01:29 pm Jan 10 10:29 am
2.00 01/10/2019 17:29:36 Jan 10 12:29 pm Jan 10 9:29 am
2.00 01/10/2019 16:29:52 Jan 10 11:29 am Jan 10 8:29 am
2.00 01/10/2019 15:28:00 Jan 10 10:28 am Jan 10 7:28 am
2.00 01/10/2019 14:28:16 Jan 10 09:28 am Jan 10 6:28 am
2.00 01/10/2019 13:28:32 Jan 10 08:28 am Jan 10 5:28 am
2.00 01/10/2019 12:28:48 Jan 10 07:28 am Jan 10 4:28 am
2.00 01/10/2019 11:29:04 Jan 10 06:29 am Jan 10 3:29 am
2.00 01/10/2019 10:29:20 Jan 10 05:29 am Jan 10 2:29 am
2.00 01/10/2019 09:29:36 Jan 10 04:29 am Jan 10 1:29 am
2.00 01/10/2019 06:28:16 Jan 10 01:28 am Jan 9 10:28 pm
2.00 01/10/2019 05:28:32 Jan 10 12:28 am Jan 9 9:28 pm
2.00 01/10/2019 04:28:48 Jan 9 11:28 pm Jan 9 8:28 pm
2.00 01/10/2019 03:29:04 Jan 9 10:29 pm Jan 9 7:29 pm
2.00 01/10/2019 02:29:20 Jan 9 09:29 pm Jan 9 6:29 pm
2.00 01/10/2019 01:29:36 Jan 9 08:29 pm Jan 9 5:29 pm
2.00 01/10/2019 00:29:52 Jan 9 07:29 pm Jan 9 4:29 pm
2.00 01/09/2019 23:28:00 Jan 9 06:28 pm Jan 9 3:28 pm
2.00 01/09/2019 22:28:16 Jan 9 05:28 pm Jan 9 2:28 pm
3.00 01/09/2019 21:28:32 Jan 9 04:28 pm Jan 9 1:28 pm
3.00 01/09/2019 20:28:48 Jan 9 03:28 pm Jan 9 12:28 pm
3.00 01/09/2019 19:58:56 Jan 9 02:58 pm Jan 9 11:58 am
3.00 01/09/2019 19:29:04 Jan 9 02:29 pm Jan 9 11:29 am
3.00 01/09/2019 18:29:20 Jan 9 01:29 pm Jan 9 10:29 am
3.00 01/09/2019 17:29:36 Jan 9 12:29 pm Jan 9 9:29 am
3.00 01/09/2019 16:29:52 Jan 9 11:29 am Jan 9 8:29 am
3.00 01/09/2019 15:28:00 Jan 9 10:28 am Jan 9 7:28 am
3.00 01/09/2019 14:28:16 Jan 9 09:28 am Jan 9 6:28 am
3.00 01/09/2019 13:28:32 Jan 9 08:28 am Jan 9 5:28 am
3.00 01/09/2019 12:28:48 Jan 9 07:28 am Jan 9 4:28 am
2.00 01/09/2019 11:29:04 Jan 9 06:29 am Jan 9 3:29 am
2.00 01/09/2019 10:29:20 Jan 9 05:29 am Jan 9 2:29 am
3.00 01/09/2019 09:29:36 Jan 9 04:29 am Jan 9 1:29 am
2.00 01/09/2019 06:28:16 Jan 9 01:28 am Jan 8 10:28 pm
2.00 01/09/2019 05:28:32 Jan 9 12:28 am Jan 8 9:28 pm
2.00 01/09/2019 04:28:48 Jan 8 11:28 pm Jan 8 8:28 pm
2.00 01/09/2019 03:29:04 Jan 8 10:29 pm Jan 8 7:29 pm
2.00 01/09/2019 02:29:20 Jan 8 09:29 pm Jan 8 6:29 pm
2.00 01/09/2019 01:29:36 Jan 8 08:29 pm Jan 8 5:29 pm
2.00 01/09/2019 00:29:52 Jan 8 07:29 pm Jan 8 4:29 pm
2.00 01/08/2019 23:28:00 Jan 8 06:28 pm Jan 8 3:28 pm
2.00 01/08/2019 22:28:16 Jan 8 05:28 pm Jan 8 2:28 pm
2.00 01/08/2019 21:28:32 Jan 8 04:28 pm Jan 8 1:28 pm
2.00 01/08/2019 20:28:48 Jan 8 03:28 pm Jan 8 12:28 pm
2.00 01/08/2019 19:58:56 Jan 8 02:58 pm Jan 8 11:58 am
2.00 01/08/2019 19:29:04 Jan 8 02:29 pm Jan 8 11:29 am
2.00 01/08/2019 18:29:20 Jan 8 01:29 pm Jan 8 10:29 am
2.00 01/08/2019 17:29:36 Jan 8 12:29 pm Jan 8 9:29 am
2.00 01/08/2019 16:29:52 Jan 8 11:29 am Jan 8 8:29 am
2.00 01/08/2019 15:28:00 Jan 8 10:28 am Jan 8 7:28 am
2.00 01/08/2019 14:28:16 Jan 8 09:28 am Jan 8 6:28 am
2.00 01/08/2019 13:28:32 Jan 8 08:28 am Jan 8 5:28 am
2.00 01/08/2019 12:28:48 Jan 8 07:28 am Jan 8 4:28 am
2.00 01/08/2019 11:29:04 Jan 8 06:29 am Jan 8 3:29 am
2.00 01/08/2019 10:29:20 Jan 8 05:29 am Jan 8 2:29 am
2.00 01/08/2019 09:29:36 Jan 8 04:29 am Jan 8 1:29 am
2.00 01/08/2019 06:28:16 Jan 8 01:28 am Jan 7 10:28 pm
2.00 01/08/2019 05:28:32 Jan 8 12:28 am Jan 7 9:28 pm
2.00 01/08/2019 04:28:48 Jan 7 11:28 pm Jan 7 8:28 pm
2.00 01/08/2019 03:29:04 Jan 7 10:29 pm Jan 7 7:29 pm
2.00 01/08/2019 02:29:20 Jan 7 09:29 pm Jan 7 6:29 pm
2.00 01/08/2019 01:29:36 Jan 7 08:29 pm Jan 7 5:29 pm
2.00 01/08/2019 00:29:52 Jan 7 07:29 pm Jan 7 4:29 pm
2.00 01/07/2019 23:28:00 Jan 7 06:28 pm Jan 7 3:28 pm
2.00 01/07/2019 22:28:16 Jan 7 05:28 pm Jan 7 2:28 pm
2.00 01/07/2019 21:28:32 Jan 7 04:28 pm Jan 7 1:28 pm
2.00 01/07/2019 20:28:48 Jan 7 03:28 pm Jan 7 12:28 pm
2.00 01/07/2019 19:58:56 Jan 7 02:58 pm Jan 7 11:58 am
2.00 01/07/2019 19:29:04 Jan 7 02:29 pm Jan 7 11:29 am
2.00 01/07/2019 18:29:20 Jan 7 01:29 pm Jan 7 10:29 am
2.00 01/07/2019 17:29:36 Jan 7 12:29 pm Jan 7 9:29 am
2.00 01/07/2019 16:29:52 Jan 7 11:29 am Jan 7 8:29 am
2.00 01/07/2019 15:28:00 Jan 7 10:28 am Jan 7 7:28 am
2.00 01/07/2019 14:28:16 Jan 7 09:28 am Jan 7 6:28 am
2.00 01/07/2019 13:28:32 Jan 7 08:28 am Jan 7 5:28 am
2.00 01/07/2019 12:28:48 Jan 7 07:28 am Jan 7 4:28 am
2.00 01/07/2019 11:29:04 Jan 7 06:29 am Jan 7 3:29 am
2.00 01/07/2019 10:29:20 Jan 7 05:29 am Jan 7 2:29 am
3.00 01/07/2019 09:29:36 Jan 7 04:29 am Jan 7 1:29 am
3.00 01/07/2019 06:28:16 Jan 7 01:28 am Jan 6 10:28 pm
3.00 01/07/2019 05:28:32 Jan 7 12:28 am Jan 6 9:28 pm
3.00 01/07/2019 04:28:48 Jan 6 11:28 pm Jan 6 8:28 pm
3.00 01/07/2019 03:29:04 Jan 6 10:29 pm Jan 6 7:29 pm
3.00 01/07/2019 02:29:20 Jan 6 09:29 pm Jan 6 6:29 pm
3.00 01/07/2019 01:29:36 Jan 6 08:29 pm Jan 6 5:29 pm
3.00 01/07/2019 00:29:52 Jan 6 07:29 pm Jan 6 4:29 pm
3.00 01/06/2019 23:28:00 Jan 6 06:28 pm Jan 6 3:28 pm
2.00 01/06/2019 22:28:16 Jan 6 05:28 pm Jan 6 2:28 pm
2.00 01/06/2019 21:28:32 Jan 6 04:28 pm Jan 6 1:28 pm
3.00 01/06/2019 20:28:48 Jan 6 03:28 pm Jan 6 12:28 pm
3.00 01/06/2019 19:58:56 Jan 6 02:58 pm Jan 6 11:58 am
2.00 01/06/2019 19:29:04 Jan 6 02:29 pm Jan 6 11:29 am
2.00 01/06/2019 18:29:20 Jan 6 01:29 pm Jan 6 10:29 am
2.00 01/06/2019 17:29:36 Jan 6 12:29 pm Jan 6 9:29 am
2.00 01/06/2019 16:29:52 Jan 6 11:29 am Jan 6 8:29 am
2.00 01/06/2019 15:28:00 Jan 6 10:28 am Jan 6 7:28 am
2.00 01/06/2019 14:28:16 Jan 6 09:28 am Jan 6 6:28 am
2.00 01/06/2019 13:28:32 Jan 6 08:28 am Jan 6 5:28 am
2.00 01/06/2019 12:28:48 Jan 6 07:28 am Jan 6 4:28 am
2.00 01/06/2019 11:29:04 Jan 6 06:29 am Jan 6 3:29 am
2.00 01/06/2019 10:29:20 Jan 6 05:29 am Jan 6 2:29 am
2.00 01/06/2019 09:29:36 Jan 6 04:29 am Jan 6 1:29 am
2.00 01/06/2019 06:28:16 Jan 6 01:28 am Jan 5 10:28 pm
2.00 01/06/2019 05:28:32 Jan 6 12:28 am Jan 5 9:28 pm
2.00 01/06/2019 04:28:48 Jan 5 11:28 pm Jan 5 8:28 pm
2.00 01/06/2019 03:29:04 Jan 5 10:29 pm Jan 5 7:29 pm
2.00 01/06/2019 02:29:20 Jan 5 09:29 pm Jan 5 6:29 pm
2.00 01/06/2019 01:29:36 Jan 5 08:29 pm Jan 5 5:29 pm
2.00 01/06/2019 00:29:52 Jan 5 07:29 pm Jan 5 4:29 pm
2.00 01/05/2019 23:28:00 Jan 5 06:28 pm Jan 5 3:28 pm
2.00 01/05/2019 22:28:16 Jan 5 05:28 pm Jan 5 2:28 pm
2.00 01/05/2019 21:28:32 Jan 5 04:28 pm Jan 5 1:28 pm
2.00 01/05/2019 20:28:48 Jan 5 03:28 pm Jan 5 12:28 pm
2.00 01/05/2019 19:58:56 Jan 5 02:58 pm Jan 5 11:58 am
2.00 01/05/2019 19:29:04 Jan 5 02:29 pm Jan 5 11:29 am
2.00 01/05/2019 18:29:20 Jan 5 01:29 pm Jan 5 10:29 am
2.00 01/05/2019 17:29:36 Jan 5 12:29 pm Jan 5 9:29 am
2.00 01/05/2019 16:29:52 Jan 5 11:29 am Jan 5 8:29 am
2.00 01/05/2019 15:28:00 Jan 5 10:28 am Jan 5 7:28 am
2.00 01/05/2019 14:28:16 Jan 5 09:28 am Jan 5 6:28 am
2.00 01/05/2019 13:28:32 Jan 5 08:28 am Jan 5 5:28 am
2.00 01/05/2019 12:28:48 Jan 5 07:28 am Jan 5 4:28 am
2.00 01/05/2019 11:29:04 Jan 5 06:29 am Jan 5 3:29 am
2.00 01/05/2019 10:29:20 Jan 5 05:29 am Jan 5 2:29 am
2.00 01/05/2019 09:29:36 Jan 5 04:29 am Jan 5 1:29 am
2.00 01/05/2019 06:28:16 Jan 5 01:28 am Jan 4 10:28 pm
2.00 01/05/2019 05:28:32 Jan 5 12:28 am Jan 4 9:28 pm
2.00 01/05/2019 04:28:48 Jan 4 11:28 pm Jan 4 8:28 pm
2.00 01/05/2019 03:29:04 Jan 4 10:29 pm Jan 4 7:29 pm
2.00 01/05/2019 02:29:20 Jan 4 09:29 pm Jan 4 6:29 pm
2.00 01/05/2019 01:29:36 Jan 4 08:29 pm Jan 4 5:29 pm
2.00 01/05/2019 00:29:52 Jan 4 07:29 pm Jan 4 4:29 pm
2.00 01/04/2019 23:28:00 Jan 4 06:28 pm Jan 4 3:28 pm
2.00 01/04/2019 22:28:16 Jan 4 05:28 pm Jan 4 2:28 pm

Status

Gauge History

Times listed in GMT 24h, ET and PT hours provided for convenience Graphs in GMT. Readings of "n/a" constitute a frozen gauge or gauge error.
Reading Updated (GMT) Eastern Pacific Comment
too low 01/18/2019 00:29:52 Jan 17 07:29 pm Jan 17 4:29 pm
too low 01/17/2019 22:28:16 Jan 17 05:28 pm Jan 17 2:28 pm
too low 01/17/2019 20:28:48 Jan 17 03:28 pm Jan 17 12:28 pm
too low 01/17/2019 18:29:20 Jan 17 01:29 pm Jan 17 10:29 am
too low 01/17/2019 16:29:52 Jan 17 11:29 am Jan 17 8:29 am
too low 01/17/2019 14:28:16 Jan 17 09:28 am Jan 17 6:28 am
too low 01/17/2019 12:28:48 Jan 17 07:28 am Jan 17 4:28 am
too low 01/17/2019 10:29:20 Jan 17 05:29 am Jan 17 2:29 am
too low 01/17/2019 09:29:36 Jan 17 04:29 am Jan 17 1:29 am
running 01/17/2019 06:28:16 Jan 17 01:28 am Jan 16 10:28 pm
running 01/17/2019 05:28:32 Jan 17 12:28 am Jan 16 9:28 pm
too low 01/17/2019 04:28:48 Jan 16 11:28 pm Jan 16 8:28 pm
too low 01/17/2019 02:29:20 Jan 16 09:29 pm Jan 16 6:29 pm
too low 01/17/2019 00:29:52 Jan 16 07:29 pm Jan 16 4:29 pm
too low 01/16/2019 22:28:16 Jan 16 05:28 pm Jan 16 2:28 pm
too low 01/16/2019 20:28:48 Jan 16 03:28 pm Jan 16 12:28 pm
too low 01/16/2019 18:29:20 Jan 16 01:29 pm Jan 16 10:29 am
too low 01/16/2019 16:29:52 Jan 16 11:29 am Jan 16 8:29 am
too low 01/16/2019 14:28:16 Jan 16 09:28 am Jan 16 6:28 am
too low 01/16/2019 12:28:48 Jan 16 07:28 am Jan 16 4:28 am
too low 01/16/2019 10:29:20 Jan 16 05:29 am Jan 16 2:29 am
too low 01/16/2019 09:29:36 Jan 16 04:29 am Jan 16 1:29 am
too low 01/16/2019 06:28:16 Jan 16 01:28 am Jan 15 10:28 pm
too low 01/16/2019 04:28:48 Jan 15 11:28 pm Jan 15 8:28 pm
too low 01/16/2019 02:29:20 Jan 15 09:29 pm Jan 15 6:29 pm
too low 01/16/2019 00:29:52 Jan 15 07:29 pm Jan 15 4:29 pm
too low 01/15/2019 22:28:16 Jan 15 05:28 pm Jan 15 2:28 pm
too low 01/15/2019 20:28:48 Jan 15 03:28 pm Jan 15 12:28 pm
too low 01/15/2019 18:29:20 Jan 15 01:29 pm Jan 15 10:29 am
too low 01/15/2019 16:29:52 Jan 15 11:29 am Jan 15 8:29 am
too low 01/15/2019 14:28:16 Jan 15 09:28 am Jan 15 6:28 am
too low 01/15/2019 12:28:48 Jan 15 07:28 am Jan 15 4:28 am
too low 01/15/2019 10:29:20 Jan 15 05:29 am Jan 15 2:29 am
too low 01/15/2019 09:29:36 Jan 15 04:29 am Jan 15 1:29 am
too low 01/15/2019 06:28:16 Jan 15 01:28 am Jan 14 10:28 pm
too low 01/15/2019 04:28:48 Jan 14 11:28 pm Jan 14 8:28 pm
too low 01/15/2019 02:29:20 Jan 14 09:29 pm Jan 14 6:29 pm
too low 01/15/2019 00:29:52 Jan 14 07:29 pm Jan 14 4:29 pm
too low 01/14/2019 22:28:16 Jan 14 05:28 pm Jan 14 2:28 pm
too low 01/14/2019 20:28:48 Jan 14 03:28 pm Jan 14 12:28 pm
too low 01/14/2019 19:58:56 Jan 14 02:58 pm Jan 14 11:58 am
too low 01/14/2019 18:29:20 Jan 14 01:29 pm Jan 14 10:29 am
too low 01/14/2019 16:29:52 Jan 14 11:29 am Jan 14 8:29 am
too low 01/14/2019 14:28:16 Jan 14 09:28 am Jan 14 6:28 am
too low 01/14/2019 12:28:48 Jan 14 07:28 am Jan 14 4:28 am
too low 01/14/2019 10:29:20 Jan 14 05:29 am Jan 14 2:29 am
too low 01/14/2019 09:29:36 Jan 14 04:29 am Jan 14 1:29 am
too low 01/14/2019 06:28:16 Jan 14 01:28 am Jan 13 10:28 pm
too low 01/14/2019 04:28:48 Jan 13 11:28 pm Jan 13 8:28 pm
too low 01/14/2019 02:29:20 Jan 13 09:29 pm Jan 13 6:29 pm
too low 01/14/2019 00:29:52 Jan 13 07:29 pm Jan 13 4:29 pm
too low 01/13/2019 22:28:16 Jan 13 05:28 pm Jan 13 2:28 pm
too low 01/13/2019 20:28:48 Jan 13 03:28 pm Jan 13 12:28 pm
too low 01/13/2019 19:58:56 Jan 13 02:58 pm Jan 13 11:58 am
too low 01/13/2019 18:29:20 Jan 13 01:29 pm Jan 13 10:29 am
too low 01/13/2019 16:29:52 Jan 13 11:29 am Jan 13 8:29 am
too low 01/13/2019 14:28:16 Jan 13 09:28 am Jan 13 6:28 am
too low 01/13/2019 12:28:48 Jan 13 07:28 am Jan 13 4:28 am
too low 01/13/2019 10:29:20 Jan 13 05:29 am Jan 13 2:29 am
too low 01/13/2019 09:29:36 Jan 13 04:29 am Jan 13 1:29 am
too low 01/13/2019 06:28:16 Jan 13 01:28 am Jan 12 10:28 pm
too low 01/13/2019 04:28:48 Jan 12 11:28 pm Jan 12 8:28 pm
too low 01/13/2019 02:29:20 Jan 12 09:29 pm Jan 12 6:29 pm
too low 01/13/2019 00:29:52 Jan 12 07:29 pm Jan 12 4:29 pm
too low 01/12/2019 22:28:16 Jan 12 05:28 pm Jan 12 2:28 pm
too low 01/12/2019 20:28:48 Jan 12 03:28 pm Jan 12 12:28 pm
too low 01/12/2019 19:58:56 Jan 12 02:58 pm Jan 12 11:58 am
too low 01/12/2019 18:29:20 Jan 12 01:29 pm Jan 12 10:29 am
too low 01/12/2019 16:29:52 Jan 12 11:29 am Jan 12 8:29 am
too low 01/12/2019 14:28:16 Jan 12 09:28 am Jan 12 6:28 am
too low 01/12/2019 12:28:48 Jan 12 07:28 am Jan 12 4:28 am
too low 01/12/2019 10:29:20 Jan 12 05:29 am Jan 12 2:29 am
too low 01/12/2019 09:29:36 Jan 12 04:29 am Jan 12 1:29 am
too low 01/12/2019 06:28:16 Jan 12 01:28 am Jan 11 10:28 pm
too low 01/12/2019 04:28:48 Jan 11 11:28 pm Jan 11 8:28 pm
too low 01/12/2019 02:29:20 Jan 11 09:29 pm Jan 11 6:29 pm
too low 01/12/2019 00:29:52 Jan 11 07:29 pm Jan 11 4:29 pm
too low 01/11/2019 22:28:16 Jan 11 05:28 pm Jan 11 2:28 pm
too low 01/11/2019 20:28:48 Jan 11 03:28 pm Jan 11 12:28 pm
too low 01/11/2019 19:58:56 Jan 11 02:58 pm Jan 11 11:58 am
too low 01/11/2019 18:29:20 Jan 11 01:29 pm Jan 11 10:29 am
too low 01/11/2019 16:29:52 Jan 11 11:29 am Jan 11 8:29 am
too low 01/11/2019 14:28:16 Jan 11 09:28 am Jan 11 6:28 am
too low 01/11/2019 12:28:48 Jan 11 07:28 am Jan 11 4:28 am
too low 01/11/2019 10:29:20 Jan 11 05:29 am Jan 11 2:29 am
too low 01/11/2019 09:29:36 Jan 11 04:29 am Jan 11 1:29 am
too low 01/11/2019 06:28:16 Jan 11 01:28 am Jan 10 10:28 pm
too low 01/11/2019 04:28:48 Jan 10 11:28 pm Jan 10 8:28 pm
too low 01/11/2019 02:29:20 Jan 10 09:29 pm Jan 10 6:29 pm
too low 01/11/2019 00:29:52 Jan 10 07:29 pm Jan 10 4:29 pm
too low 01/10/2019 22:28:16 Jan 10 05:28 pm Jan 10 2:28 pm
too low 01/10/2019 20:28:48 Jan 10 03:28 pm Jan 10 12:28 pm
too low 01/10/2019 18:29:20 Jan 10 01:29 pm Jan 10 10:29 am
too low 01/10/2019 16:29:52 Jan 10 11:29 am Jan 10 8:29 am
too low 01/10/2019 14:28:16 Jan 10 09:28 am Jan 10 6:28 am
too low 01/10/2019 12:28:48 Jan 10 07:28 am Jan 10 4:28 am
too low 01/10/2019 10:29:20 Jan 10 05:29 am Jan 10 2:29 am
too low 01/10/2019 09:29:36 Jan 10 04:29 am Jan 10 1:29 am
too low 01/10/2019 06:28:16 Jan 10 01:28 am Jan 9 10:28 pm
too low 01/10/2019 04:28:48 Jan 9 11:28 pm Jan 9 8:28 pm
too low 01/10/2019 02:29:20 Jan 9 09:29 pm Jan 9 6:29 pm
too low 01/10/2019 00:29:52 Jan 9 07:29 pm Jan 9 4:29 pm
too low 01/09/2019 22:28:16 Jan 9 05:28 pm Jan 9 2:28 pm
too low 01/09/2019 20:28:48 Jan 9 03:28 pm Jan 9 12:28 pm
too low 01/09/2019 18:29:20 Jan 9 01:29 pm Jan 9 10:29 am
too low 01/09/2019 16:29:52 Jan 9 11:29 am Jan 9 8:29 am
too low 01/09/2019 14:28:16 Jan 9 09:28 am Jan 9 6:28 am
too low 01/09/2019 12:28:48 Jan 9 07:28 am Jan 9 4:28 am
too low 01/09/2019 10:29:20 Jan 9 05:29 am Jan 9 2:29 am
too low 01/09/2019 09:29:36 Jan 9 04:29 am Jan 9 1:29 am
too low 01/09/2019 06:28:16 Jan 9 01:28 am Jan 8 10:28 pm
too low 01/09/2019 04:28:48 Jan 8 11:28 pm Jan 8 8:28 pm
too low 01/09/2019 02:29:20 Jan 8 09:29 pm Jan 8 6:29 pm
too low 01/09/2019 00:29:52 Jan 8 07:29 pm Jan 8 4:29 pm
too low 01/08/2019 22:28:16 Jan 8 05:28 pm Jan 8 2:28 pm
too low 01/08/2019 20:28:48 Jan 8 03:28 pm Jan 8 12:28 pm
too low 01/08/2019 19:58:56 Jan 8 02:58 pm Jan 8 11:58 am
too low 01/08/2019 18:29:20 Jan 8 01:29 pm Jan 8 10:29 am
too low 01/08/2019 16:29:52 Jan 8 11:29 am Jan 8 8:29 am
too low 01/08/2019 14:28:16 Jan 8 09:28 am Jan 8 6:28 am
too low 01/08/2019 12:28:48 Jan 8 07:28 am Jan 8 4:28 am
too low 01/08/2019 10:29:20 Jan 8 05:29 am Jan 8 2:29 am
too low 01/08/2019 09:29:36 Jan 8 04:29 am Jan 8 1:29 am
too low 01/08/2019 06:28:16 Jan 8 01:28 am Jan 7 10:28 pm
too low 01/08/2019 04:28:48 Jan 7 11:28 pm Jan 7 8:28 pm
too low 01/08/2019 02:29:20 Jan 7 09:29 pm Jan 7 6:29 pm
too low 01/08/2019 00:29:52 Jan 7 07:29 pm Jan 7 4:29 pm
too low 01/07/2019 22:28:16 Jan 7 05:28 pm Jan 7 2:28 pm
too low 01/07/2019 20:28:48 Jan 7 03:28 pm Jan 7 12:28 pm
too low 01/07/2019 18:29:20 Jan 7 01:29 pm Jan 7 10:29 am
too low 01/07/2019 16:29:52 Jan 7 11:29 am Jan 7 8:29 am
too low 01/07/2019 14:28:16 Jan 7 09:28 am Jan 7 6:28 am
too low 01/07/2019 12:28:48 Jan 7 07:28 am Jan 7 4:28 am
too low 01/07/2019 10:29:20 Jan 7 05:29 am Jan 7 2:29 am
too low 01/07/2019 09:29:36 Jan 7 04:29 am Jan 7 1:29 am
too low 01/07/2019 06:28:16 Jan 7 01:28 am Jan 6 10:28 pm
too low 01/07/2019 04:28:48 Jan 6 11:28 pm Jan 6 8:28 pm
too low 01/07/2019 02:29:20 Jan 6 09:29 pm Jan 6 6:29 pm
too low 01/07/2019 00:29:52 Jan 6 07:29 pm Jan 6 4:29 pm
too low 01/06/2019 22:28:16 Jan 6 05:28 pm Jan 6 2:28 pm
too low 01/06/2019 20:28:48 Jan 6 03:28 pm Jan 6 12:28 pm
too low 01/06/2019 18:29:20 Jan 6 01:29 pm Jan 6 10:29 am
too low 01/06/2019 16:29:52 Jan 6 11:29 am Jan 6 8:29 am
too low 01/06/2019 14:28:16 Jan 6 09:28 am Jan 6 6:28 am
too low 01/06/2019 12:28:48 Jan 6 07:28 am Jan 6 4:28 am
too low 01/06/2019 10:29:20 Jan 6 05:29 am Jan 6 2:29 am
too low 01/06/2019 09:29:36 Jan 6 04:29 am Jan 6 1:29 am
too low 01/06/2019 06:28:16 Jan 6 01:28 am Jan 5 10:28 pm
too low 01/06/2019 04:28:48 Jan 5 11:28 pm Jan 5 8:28 pm
too low 01/06/2019 02:29:20 Jan 5 09:29 pm Jan 5 6:29 pm
too low 01/06/2019 00:29:52 Jan 5 07:29 pm Jan 5 4:29 pm
too low 01/05/2019 22:28:16 Jan 5 05:28 pm Jan 5 2:28 pm
too low 01/05/2019 20:28:48 Jan 5 03:28 pm Jan 5 12:28 pm
too low 01/05/2019 19:58:56 Jan 5 02:58 pm Jan 5 11:58 am
too low 01/05/2019 18:29:20 Jan 5 01:29 pm Jan 5 10:29 am
too low 01/05/2019 16:29:52 Jan 5 11:29 am Jan 5 8:29 am
too low 01/05/2019 14:28:16 Jan 5 09:28 am Jan 5 6:28 am
too low 01/05/2019 12:28:48 Jan 5 07:28 am Jan 5 4:28 am
too low 01/05/2019 10:29:20 Jan 5 05:29 am Jan 5 2:29 am
too low 01/05/2019 09:29:36 Jan 5 04:29 am Jan 5 1:29 am
too low 01/05/2019 06:28:16 Jan 5 01:28 am Jan 4 10:28 pm
too low 01/05/2019 04:28:48 Jan 4 11:28 pm Jan 4 8:28 pm
too low 01/05/2019 02:29:20 Jan 4 09:29 pm Jan 4 6:29 pm
too low 01/05/2019 00:29:52 Jan 4 07:29 pm Jan 4 4:29 pm
too low 01/04/2019 22:28:16 Jan 4 05:28 pm Jan 4 2:28 pm
too low 01/04/2019 20:28:48 Jan 4 03:28 pm Jan 4 12:28 pm
too low 01/04/2019 19:58:56 Jan 4 02:58 pm Jan 4 11:58 am
too low 01/04/2019 18:29:20 Jan 4 01:29 pm Jan 4 10:29 am
too low 01/04/2019 16:29:52 Jan 4 11:29 am Jan 4 8:29 am
too low 01/04/2019 14:28:16 Jan 4 09:28 am Jan 4 6:28 am
too low 01/04/2019 12:28:48 Jan 4 07:28 am Jan 4 4:28 am
too low 01/04/2019 10:29:20 Jan 4 05:29 am Jan 4 2:29 am
too low 01/04/2019 09:29:36 Jan 4 04:29 am Jan 4 1:29 am
too low 01/04/2019 06:28:16 Jan 4 01:28 am Jan 3 10:28 pm
too low 01/04/2019 04:28:48 Jan 3 11:28 pm Jan 3 8:28 pm
too low 01/04/2019 02:29:20 Jan 3 09:29 pm Jan 3 6:29 pm
too low 01/04/2019 00:29:52 Jan 3 07:29 pm Jan 3 4:29 pm
too low 01/03/2019 22:28:16 Jan 3 05:28 pm Jan 3 2:28 pm
too low 01/03/2019 20:28:48 Jan 3 03:28 pm Jan 3 12:28 pm
too low 01/03/2019 19:58:56 Jan 3 02:58 pm Jan 3 11:58 am
too low 01/03/2019 18:29:20 Jan 3 01:29 pm Jan 3 10:29 am
too low 01/03/2019 16:29:52 Jan 3 11:29 am Jan 3 8:29 am
too low 01/03/2019 14:28:16 Jan 3 09:28 am Jan 3 6:28 am
too low 01/03/2019 12:28:48 Jan 3 07:28 am Jan 3 4:28 am
too low 01/03/2019 10:29:20 Jan 3 05:29 am Jan 3 2:29 am
too low 01/03/2019 09:29:36 Jan 3 04:29 am Jan 3 1:29 am
too low 01/03/2019 06:28:16 Jan 3 01:28 am Jan 2 10:28 pm
too low 01/03/2019 04:28:48 Jan 2 11:28 pm Jan 2 8:28 pm
too low 01/03/2019 02:29:20 Jan 2 09:29 pm Jan 2 6:29 pm
too low 01/03/2019 00:29:52 Jan 2 07:29 pm Jan 2 4:29 pm
too low 01/02/2019 22:28:16 Jan 2 05:28 pm Jan 2 2:28 pm
too low 01/02/2019 20:28:48 Jan 2 03:28 pm Jan 2 12:28 pm
too low 01/02/2019 19:58:56 Jan 2 02:58 pm Jan 2 11:58 am
too low 01/02/2019 18:29:20 Jan 2 01:29 pm Jan 2 10:29 am
too low 01/02/2019 16:29:52 Jan 2 11:29 am Jan 2 8:29 am
too low 01/02/2019 14:28:16 Jan 2 09:28 am Jan 2 6:28 am
too low 01/02/2019 12:28:48 Jan 2 07:28 am Jan 2 4:28 am
too low 01/02/2019 10:29:20 Jan 2 05:29 am Jan 2 2:29 am
too low 01/02/2019 09:29:36 Jan 2 04:29 am Jan 2 1:29 am
too low 01/02/2019 06:28:16 Jan 2 01:28 am Jan 1 10:28 pm
too low 01/02/2019 04:28:48 Jan 1 11:28 pm Jan 1 8:28 pm
too low 01/02/2019 02:29:20 Jan 1 09:29 pm Jan 1 6:29 pm
too low 01/02/2019 00:29:52 Jan 1 07:29 pm Jan 1 4:29 pm
too low 01/01/2019 22:28:16 Jan 1 05:28 pm Jan 1 2:28 pm
too low 01/01/2019 20:28:48 Jan 1 03:28 pm Jan 1 12:28 pm
too low 01/01/2019 19:58:56 Jan 1 02:58 pm Jan 1 11:58 am
too low 01/01/2019 19:29:04 Jan 1 02:29 pm Jan 1 11:29 am
too low 01/01/2019 06:28:16 Jan 1 01:28 am Dec 31 10:28 pm
too low 01/01/2019 04:28:48 Dec 31 11:28 pm Dec 31 8:28 pm
too low 01/01/2019 02:29:20 Dec 31 09:29 pm Dec 31 6:29 pm
too low 01/01/2019 00:29:52 Dec 31 07:29 pm Dec 31 4:29 pm
too low 12/31/2018 22:28:16 Dec 31 05:28 pm Dec 31 2:28 pm
too low 12/31/2018 20:28:48 Dec 31 03:28 pm Dec 31 12:28 pm
too low 12/31/2018 19:58:56 Dec 31 02:58 pm Dec 31 11:58 am
too low 12/31/2018 18:29:20 Dec 31 01:29 pm Dec 31 10:29 am
too low 12/31/2018 14:28:16 Dec 31 09:28 am Dec 31 6:28 am
too low 12/31/2018 12:28:48 Dec 31 07:28 am Dec 31 4:28 am
too low 12/31/2018 10:29:20 Dec 31 05:29 am Dec 31 2:29 am
too low 12/31/2018 09:29:36 Dec 31 04:29 am Dec 31 1:29 am
too low 12/31/2018 06:28:16 Dec 31 01:28 am Dec 30 10:28 pm
too low 12/31/2018 04:28:48 Dec 30 11:28 pm Dec 30 8:28 pm
too low 12/31/2018 02:29:20 Dec 30 09:29 pm Dec 30 6:29 pm
too low 12/31/2018 00:29:52 Dec 30 07:29 pm Dec 30 4:29 pm
too low 12/30/2018 22:28:16 Dec 30 05:28 pm Dec 30 2:28 pm
too low 12/30/2018 20:28:48 Dec 30 03:28 pm Dec 30 12:28 pm
too low 12/30/2018 18:29:20 Dec 30 01:29 pm Dec 30 10:29 am
too low 12/30/2018 16:29:52 Dec 30 11:29 am Dec 30 8:29 am
too low 12/30/2018 14:28:16 Dec 30 09:28 am Dec 30 6:28 am
too low 12/30/2018 12:28:48 Dec 30 07:28 am Dec 30 4:28 am
too low 12/30/2018 10:29:20 Dec 30 05:29 am Dec 30 2:29 am
too low 12/30/2018 09:29:36 Dec 30 04:29 am Dec 30 1:29 am
too low 12/30/2018 06:28:16 Dec 30 01:28 am Dec 29 10:28 pm
too low 12/30/2018 04:28:48 Dec 29 11:28 pm Dec 29 8:28 pm
too low 12/30/2018 02:29:20 Dec 29 09:29 pm Dec 29 6:29 pm
too low 12/30/2018 00:29:52 Dec 29 07:29 pm Dec 29 4:29 pm
too low 12/29/2018 22:28:16 Dec 29 05:28 pm Dec 29 2:28 pm
too low 12/29/2018 20:28:48 Dec 29 03:28 pm Dec 29 12:28 pm
too low 12/29/2018 18:29:20 Dec 29 01:29 pm Dec 29 10:29 am
too low 12/29/2018 16:29:52 Dec 29 11:29 am Dec 29 8:29 am
too low 12/29/2018 14:28:16 Dec 29 09:28 am Dec 29 6:28 am
too low 12/29/2018 12:28:48 Dec 29 07:28 am Dec 29 4:28 am
too low 12/29/2018 10:29:20 Dec 29 05:29 am Dec 29 2:29 am
too low 12/29/2018 09:29:36 Dec 29 04:29 am Dec 29 1:29 am
too low 12/29/2018 06:28:16 Dec 29 01:28 am Dec 28 10:28 pm
too low 12/29/2018 04:28:48 Dec 28 11:28 pm Dec 28 8:28 pm
too low 12/29/2018 02:29:20 Dec 28 09:29 pm Dec 28 6:29 pm
too low 12/29/2018 00:29:52 Dec 28 07:29 pm Dec 28 4:29 pm
too low 12/28/2018 20:28:48 Dec 28 03:28 pm Dec 28 12:28 pm
too low 12/28/2018 19:58:56 Dec 28 02:58 pm Dec 28 11:58 am
too low 12/28/2018 18:29:20 Dec 28 01:29 pm Dec 28 10:29 am
too low 12/28/2018 16:29:52 Dec 28 11:29 am Dec 28 8:29 am
too low 12/28/2018 14:28:16 Dec 28 09:28 am Dec 28 6:28 am
too low 12/28/2018 12:28:48 Dec 28 07:28 am Dec 28 4:28 am
too low 12/28/2018 10:29:20 Dec 28 05:29 am Dec 28 2:29 am
too low 12/28/2018 09:29:36 Dec 28 04:29 am Dec 28 1:29 am
too low 12/28/2018 06:28:16 Dec 28 01:28 am Dec 27 10:28 pm
too low 12/28/2018 04:28:48 Dec 27 11:28 pm Dec 27 8:28 pm
too low 12/28/2018 02:29:20 Dec 27 09:29 pm Dec 27 6:29 pm
too low 12/28/2018 00:29:52 Dec 27 07:29 pm Dec 27 4:29 pm
too low 12/27/2018 22:28:16 Dec 27 05:28 pm Dec 27 2:28 pm
too low 12/27/2018 20:28:48 Dec 27 03:28 pm Dec 27 12:28 pm
too low 12/27/2018 18:29:20 Dec 27 01:29 pm Dec 27 10:29 am
too low 12/27/2018 16:29:52 Dec 27 11:29 am Dec 27 8:29 am
too low 12/27/2018 14:28:16 Dec 27 09:28 am Dec 27 6:28 am
too low 12/27/2018 12:28:48 Dec 27 07:28 am Dec 27 4:28 am
too low 12/27/2018 10:29:20 Dec 27 05:29 am Dec 27 2:29 am
too low 12/27/2018 09:29:36 Dec 27 04:29 am Dec 27 1:29 am
too low 12/27/2018 06:28:16 Dec 27 01:28 am Dec 26 10:28 pm
too low 12/27/2018 04:28:48 Dec 26 11:28 pm Dec 26 8:28 pm
too low 12/27/2018 02:29:20 Dec 26 09:29 pm Dec 26 6:29 pm
too low 12/27/2018 00:29:52 Dec 26 07:29 pm Dec 26 4:29 pm
too low 12/26/2018 22:28:16 Dec 26 05:28 pm Dec 26 2:28 pm
too low 12/26/2018 20:28:48 Dec 26 03:28 pm Dec 26 12:28 pm
too low 12/26/2018 19:58:56 Dec 26 02:58 pm Dec 26 11:58 am
too low 12/26/2018 18:29:20 Dec 26 01:29 pm Dec 26 10:29 am
too low 12/26/2018 16:29:52 Dec 26 11:29 am Dec 26 8:29 am
too low 12/26/2018 14:28:16 Dec 26 09:28 am Dec 26 6:28 am
too low 12/26/2018 12:28:48 Dec 26 07:28 am Dec 26 4:28 am
too low 12/26/2018 10:29:20 Dec 26 05:29 am Dec 26 2:29 am
too low 12/26/2018 09:29:36 Dec 26 04:29 am Dec 26 1:29 am
too low 12/26/2018 06:28:16 Dec 26 01:28 am Dec 25 10:28 pm
too low 12/26/2018 04:28:48 Dec 25 11:28 pm Dec 25 8:28 pm
too low 12/26/2018 02:29:20 Dec 25 09:29 pm Dec 25 6:29 pm
too low 12/26/2018 00:29:52 Dec 25 07:29 pm Dec 25 4:29 pm
too low 12/25/2018 22:28:16 Dec 25 05:28 pm Dec 25 2:28 pm
too low 12/25/2018 20:28:48 Dec 25 03:28 pm Dec 25 12:28 pm
too low 12/25/2018 19:58:56 Dec 25 02:58 pm Dec 25 11:58 am
too low 12/25/2018 18:29:20 Dec 25 01:29 pm Dec 25 10:29 am
too low 12/25/2018 16:29:52 Dec 25 11:29 am Dec 25 8:29 am
too low 12/25/2018 14:28:16 Dec 25 09:28 am Dec 25 6:28 am
too low 12/25/2018 12:28:48 Dec 25 07:28 am Dec 25 4:28 am
too low 12/25/2018 10:29:20 Dec 25 05:29 am Dec 25 2:29 am
too low 12/25/2018 09:29:36 Dec 25 04:29 am Dec 25 1:29 am
too low 12/25/2018 06:28:16 Dec 25 01:28 am Dec 24 10:28 pm
too low 12/25/2018 04:28:48 Dec 24 11:28 pm Dec 24 8:28 pm
too low 12/25/2018 02:29:20 Dec 24 09:29 pm Dec 24 6:29 pm
too low 12/25/2018 00:29:52 Dec 24 07:29 pm Dec 24 4:29 pm
too low 12/24/2018 22:28:16 Dec 24 05:28 pm Dec 24 2:28 pm
too low 12/24/2018 20:28:48 Dec 24 03:28 pm Dec 24 12:28 pm
too low 12/24/2018 19:58:56 Dec 24 02:58 pm Dec 24 11:58 am

Report - Reports of Related Gauges

Reports give the public a chance to report on river conditions throughout the country as well as log the history of a river.

Reports

No Reports Filed

Linked Reaches

Click a heading to sort. Hover over a heading for help.
River Name/Section Class Level running? Updated
Cache Creek [CA] 1) Hwy 20 to the Bear Creek Confluence II(III) 5 cfs
0 cfs/hr
L8-
Below Recom.
00h36m